Weather History for Lyndonville, VT

Change the Weather History Date:

Tuesday, March 18, 2014

  Actual Average (K1V4) Record (K1V4)
Temperature  
Mean Temperature 13 °F 31 °F  
Max Temperature 32 °F 42 °F 78 °F (2012)
Min Temperature -6 °F 20 °F -14 °F (1967)
Degree Days  
Heating Degree Days 52 34  
Month to date heating degree days 678  
Since 1 July heating degree days 6402  
Cooling Degree Days 0 0  
Month to date cooling degree days 0  
Year to date cooling degree days 0  
Moisture  
Dew Point -9 °F    
Average Humidity 42    
Maximum Humidity 75    
Minimum Humidity 14    
Precipitation  
Precipitation 0.00 in 0.08 in 0.76 in (1989)
Month to date precipitation 1.39  
Year to date precipitation 6.07  
Sea Level Pressure  
Sea Level Pressure 30.24 in    
Wind  
Wind Speed 0 mph (ESE)    
Max Wind Speed 5 mph    
Max Gust Speed -    
Visibility 10 miles    
Events      
T = Trace of Precipitation, MM = Missing Value Source: NWS Daily Summary

Daily Weather History Graph

Daily Weather History Graph

Search for Another Location

Airport:

Trip Planner

Search our weather history database for the weather conditions in past years. The results will help you decide how hot, cold, wet, or windy it might be!

Date:

Astronomy

Mar. 18, 2014 Rise Set
Actual Time 6:54 AM EDT 6:57 PM EDT
Civil Twilight 6:25 AM EDT 7:27 PM EDT
Nautical Twilight 5:51 AM EDT 8:01 PM EDT
Astronomical Twilight 5:17 AM EDT 8:35 PM EDT
Moon 9:18 PM EDT (3/18) 7:37 AM EDT (3/18)
Length of Visible Light 13h 01m
Length of Day
12h 03m
Waning Gibbous, 96% of the Moon is Illuminated
Mar 18
Waning Gibbous
Mar 23
Last Quarter
Mar 30
New
Apr 7
First Quarter
Apr 15
Full

Hourly Weather History & Observations

Time (EDT) Temp. Windchill Dew Point Humidity Pressure Visibility Wind Dir Wind Speed Gust Speed Precip Events Conditions
12:15 AM 3.2 °F - -9.2 °F 56% 30.13 in 10.0 mi Calm Calm - N/A   Clear
12:35 AM 1.0 °F - -9.8 °F 61% 30.15 in 10.0 mi Calm Calm - N/A   Clear
12:55 AM -0.4 °F - -10.3 °F 63% 30.15 in 10.0 mi Calm Calm - N/A   Clear
1:15 AM -0.9 °F - -10.5 °F 64% 30.15 in 10.0 mi Calm Calm - N/A   Clear
1:35 AM -0.0 °F - -9.9 °F 63% 30.16 in 10.0 mi Calm Calm - N/A   Clear
1:55 AM 0.7 °F - -9.0 °F 64% 30.17 in 10.0 mi Calm Calm - N/A   Clear
2:15 AM -1.3 °F - -10.7 °F 65% 30.17 in 10.0 mi Calm Calm - N/A   Clear
2:35 AM -1.3 °F - -9.9 °F 67% 30.17 in 10.0 mi Calm Calm - N/A   Clear
2:55 AM -1.5 °F - -9.6 °F 69% 30.18 in 10.0 mi Calm Calm - N/A   Clear
3:15 AM -2.0 °F - -10.8 °F 66% 30.18 in 10.0 mi Calm Calm - N/A   Clear
3:35 AM -2.9 °F - -10.7 °F 70% 30.18 in 10.0 mi Calm Calm - N/A   Clear
3:55 AM -2.9 °F - -9.9 °F 72% 30.18 in 10.0 mi Calm Calm - N/A   Clear
4:15 AM -2.7 °F - -11.0 °F 68% 30.18 in 7.0 mi Calm Calm - N/A   Clear
4:35 AM -3.1 °F - -10.3 °F 71% 30.18 in 10.0 mi Calm Calm - N/A   Clear
4:55 AM -5.1 °F - -11.9 °F 72% 30.18 in 10.0 mi Calm Calm - N/A   Clear
5:15 AM -2.6 °F - -9.8 °F 71% 30.19 in 10.0 mi Calm Calm - N/A   Clear
5:35 AM -6.0 °F - -12.8 °F 72% 30.19 in 10.0 mi Calm Calm - N/A   Clear
5:55 AM -4.0 °F - -10.3 °F 74% 30.19 in 10.0 mi Calm Calm - N/A   Clear
6:15 AM -6.9 °F - -13.0 °F 75% 30.20 in 10.0 mi Calm Calm - N/A   Clear
6:35 AM -5.6 °F -14.3 °F -11.6 °F 75% 30.21 in 10.0 mi SW 3.5 mph - N/A   Clear
6:55 AM -6.2 °F - -12.8 °F 73% 30.23 in 10.0 mi Calm Calm - N/A   Clear
7:15 AM -6.9 °F - -13.0 °F 75% 30.24 in 10.0 mi Calm Calm - N/A   Clear
7:35 AM -3.3 °F - -10.1 °F 73% 30.24 in 10.0 mi Calm Calm - N/A   Clear
7:55 AM -4.5 °F - -11.9 °F 71% 30.25 in 10.0 mi Calm Calm - N/A   Clear
8:15 AM -5.4 °F - -13.9 °F 67% 30.26 in 10.0 mi Calm Calm - N/A   Clear
8:35 AM -2.6 °F -10.8 °F -12.3 °F 63% 30.27 in 10.0 mi SW 3.5 mph - N/A   Clear
8:55 AM -0.8 °F - -10.8 °F 62% 30.27 in 10.0 mi Calm Calm - N/A   Clear
9:15 AM 2.8 °F - -9.6 °F 56% 30.28 in 10.0 mi Calm Calm - N/A   Clear
9:35 AM 5.9 °F - -8.7 °F 51% 30.29 in 10.0 mi Calm Calm - N/A   Clear
9:55 AM 8.8 °F - -7.8 °F 47% 30.28 in 10.0 mi Calm Calm - N/A   Clear
10:15 AM 12.2 °F - -6.7 °F 43% 30.30 in 10.0 mi Calm Calm - N/A   Clear
10:35 AM 13.1 °F - -7.8 °F 39% 30.28 in 10.0 mi Calm Calm - N/A   Clear
10:55 AM 14.9 °F - -6.3 °F 39% 30.28 in 10.0 mi Calm Calm - N/A   Clear
11:15 AM 16.7 °F - -6.2 °F 36% 30.28 in 10.0 mi Calm Calm - N/A   Clear
11:35 AM 19.4 °F - -9.9 °F 27% 30.27 in 10.0 mi Calm Calm - N/A   Clear
11:55 AM 22.1 °F - -9.0 °F 25% 30.27 in 10.0 mi Calm Calm - N/A   Clear
12:15 PM 23.5 °F - -6.7 °F 26% 30.27 in 10.0 mi Calm Calm - N/A   Clear
12:35 PM 23.9 °F - -9.2 °F 23% 30.25 in 10.0 mi Calm Calm - N/A   Clear
12:55 PM 25.9 °F - -8.1 °F 22% 30.26 in 10.0 mi Calm Calm - N/A   Clear
1:15 PM 26.2 °F - -11.9 °F 18% 30.26 in 10.0 mi Calm Calm - N/A   Clear
1:35 PM 28.4 °F - -10.8 °F 18% 30.26 in 10.0 mi Calm Calm - N/A   Clear
1:55 PM 28.4 °F - -14.3 °F 15% 30.26 in 10.0 mi Calm Calm - N/A   Clear
2:15 PM 30.0 °F - -9.9 °F 17% 30.25 in 10.0 mi Calm Calm - N/A   Clear
2:35 PM 30.9 °F - -10.5 °F 16% 30.25 in 10.0 mi Calm Calm - N/A   Clear
2:55 PM 30.9 °F - -9.0 °F 18% 30.25 in 10.0 mi Calm Calm - N/A   Clear
3:15 PM 31.8 °F - -12.6 °F 14% 30.26 in 10.0 mi Calm Calm - N/A   Clear
3:35 PM 32.2 °F - -10.1 °F 16% 30.25 in 10.0 mi Calm Calm - N/A   Clear
3:55 PM 32.9 °F 29.8 °F -8.7 °F 16% 30.25 in 10.0 mi East 3.5 mph - N/A   Clear
4:15 PM 32.4 °F 29.1 °F -5.6 °F 19% 30.25 in 10.0 mi SSE 3.5 mph - N/A   Clear
4:35 PM 32.5 °F 28.1 °F -7.8 °F 17% 30.26 in 10.0 mi ESE 4.6 mph - N/A   Clear
4:55 PM 32.5 °F 29.3 °F -7.8 °F 17% 30.25 in 10.0 mi East 3.5 mph - N/A   Clear
5:15 PM 32.0 °F 28.7 °F -4.0 °F 21% 30.25 in 10.0 mi East 3.5 mph - N/A   Clear
5:35 PM 32.0 °F 28.7 °F -5.3 °F 20% 30.25 in 10.0 mi ESE 3.5 mph - N/A   Clear
5:55 PM 32.4 °F - -9.2 °F 16% 30.26 in 10.0 mi Calm Calm - N/A   Clear
6:15 PM 32.2 °F - -7.6 °F 18% 30.26 in 10.0 mi Calm Calm - N/A   Clear
6:35 PM 32.0 °F - -11.0 °F 15% 30.27 in 10.0 mi Calm Calm - N/A   Clear
6:55 PM 29.7 °F - -8.5 °F 19% 30.27 in 10.0 mi Calm Calm - N/A   Clear
7:15 PM 28.4 °F - -7.4 °F 21% 30.27 in 10.0 mi Calm Calm - N/A   Clear
7:35 PM 30.7 °F - -11.0 °F 16% 30.28 in 10.0 mi Calm Calm - N/A   Clear
7:55 PM 28.9 °F - -6.9 °F 21% 30.27 in 10.0 mi Calm Calm - N/A   Clear
8:15 PM 28.9 °F - -9.2 °F 19% 30.28 in 10.0 mi Calm Calm - N/A   Clear
8:35 PM 25.0 °F 20.7 °F -6.3 °F 25% 30.30 in 10.0 mi East 3.5 mph - N/A   Clear
8:55 PM 24.1 °F 19.7 °F -3.8 °F 30% 30.28 in 10.0 mi NE 3.5 mph - N/A   Clear
9:15 PM 25.2 °F - -6.3 °F 25% 30.29 in 10.0 mi Calm Calm - N/A   Clear
9:35 PM 25.5 °F - -5.6 °F 26% 30.28 in 10.0 mi Calm Calm - N/A   Clear
9:55 PM 24.8 °F - -4.2 °F 28% 30.28 in 10.0 mi Calm Calm - N/A   Clear
10:15 PM 23.7 °F - -4.0 °F 30% 30.28 in 10.0 mi Calm Calm - N/A   Clear
10:35 PM 23.0 °F - -3.8 °F 31% 30.28 in 10.0 mi Calm Calm - N/A   Clear
10:55 PM 22.5 °F - -4.0 °F 31% 30.28 in 10.0 mi Calm Calm - N/A   Clear
11:15 PM 20.3 °F - -2.6 °F 37% 30.28 in 10.0 mi Calm Calm - N/A   Clear
11:35 PM 18.0 °F - -1.3 °F 43% 30.28 in 10.0 mi Calm Calm - N/A   Clear
11:55 PM 19.2 °F - -1.8 °F 40% 30.28 in 10.0 mi Calm Calm - N/A   Clear